TimeCEST,TemperatureF,Dew PointF,Humidity,Sea Level PressureIn,VisibilityMPH,Wind Direction,Wind SpeedMPH,Gust SpeedMPH,PrecipitationIn,Events,Conditions,WindDirDegrees,DateUTC
12:25 AM,48.2,48.2,100,29.80,6.2,Variable,1.2,-,N/A,,Mostly Cloudy,0,2013-05-20 22:25:00
12:55 AM,48.2,48.2,100,29.80,6.2,Calm,Calm,-,N/A,,Mostly Cloudy,0,2013-05-20 22:55:00
1:25 AM,48.2,48.2,100,29.80,6.2,Calm,Calm,-,N/A,,Mostly Cloudy,0,2013-05-20 23:25:00
1:55 AM,48.2,48.2,100,29.80,6.2,Calm,Calm,-,N/A,,Mostly Cloudy,0,2013-05-20 23:55:00
2:00 AM,48,47,96,29.83,7,Calm,Calm,,,,Mostly Cloudy,,2013-05-21 00:00:00
2:25 AM,48.2,48.2,100,29.80,6.2,Calm,Calm,-,N/A,,Mostly Cloudy,0,2013-05-21 00:25:00
2:55 AM,48.2,48.2,100,29.80,6.2,Calm,Calm,-,N/A,,Mostly Cloudy,0,2013-05-21 00:55:00
3:25 AM,48.2,48.2,100,29.80,6.2,Calm,Calm,-,N/A,,Mostly Cloudy,0,2013-05-21 01:25:00
3:55 AM,48.2,46.4,93,29.80,6.2,Calm,Calm,-,N/A,,Mostly Cloudy,0,2013-05-21 01:55:00
4:25 AM,48.2,46.4,93,29.80,6.2,Calm,Calm,-,N/A,,Mostly Cloudy,0,2013-05-21 02:25:00
4:55 AM,46.4,46.4,100,29.80,1.9,Calm,Calm,-,N/A,,Mostly Cloudy,0,2013-05-21 02:55:00
5:00 AM,47,47,98,29.82,2,Calm,Calm,,,,Mist,,2013-05-21 03:00:00
5:25 AM,46.4,46.4,100,29.80,0.4,Variable,1.2,-,N/A,Fog,Fog,0,2013-05-21 03:25:00
5:55 AM,46.4,46.4,100,29.80,0.4,Calm,Calm,-,N/A,Fog,Fog,0,2013-05-21 03:55:00
6:25 AM,46.4,46.4,100,29.80,0.6,Calm,Calm,-,N/A,Fog,Fog,0,2013-05-21 04:25:00
6:55 AM,48.2,48.2,100,29.80,1.6,Calm,Calm,-,N/A,,Mostly Cloudy,0,2013-05-21 04:55:00
7:25 AM,48.2,48.2,100,29.80,2.2,Calm,Calm,-,N/A,,Mostly Cloudy,0,2013-05-21 05:25:00
7:49 AM,48.2,48.2,100,29.80,2.2,Calm,Calm,-,N/A,,Mostly Cloudy,0,2013-05-21 05:49:00
7:55 AM,50.0,48.2,94,29.80,2.2,Calm,Calm,-,N/A,Rain,Light Rain,0,2013-05-21 05:55:00
8:00 AM,49,48,96,29.82,2,Calm,Calm,,,Rain,Light Rain,,2013-05-21 06:00:00
8:23 AM,50.0,48.2,94,29.80,2.5,Variable,1.2,-,N/A,Rain,Light Rain,0,2013-05-21 06:23:00
8:25 AM,50.0,48.2,94,29.80,-9999.0,West,1.2,-,N/A,,Mostly Cloudy,270,2013-05-21 06:25:00
8:55 AM,50.0,48.2,94,29.80,2.5,West,2.3,-,N/A,Rain,Light Rain,270,2013-05-21 06:55:00
9:25 AM,50.0,48.2,94,29.83,2.5,WNW,3.5,-,N/A,Rain,Light Rain,290,2013-05-21 07:25:00
9:55 AM,50.0,48.2,94,29.83,-9999.0,West,2.3,-,N/A,Rain,Light Rain,270,2013-05-21 07:55:00
10:04 AM,50.0,48.2,94,29.83,2.5,West,2.3,-,N/A,Rain,Light Rain,270,2013-05-21 08:04:00
10:25 AM,50.0,48.2,94,29.83,2.5,West,2.3,-,N/A,Rain,Light Rain,270,2013-05-21 08:25:00
10:55 AM,50.0,50.0,100,29.83,2.5,NW,3.5,-,N/A,Rain,Light Rain,320,2013-05-21 08:55:00
11:00 AM,49,49,100,29.86,2,NW,4.5,,,Rain,Light Rain,320,2013-05-21 09:00:00
11:23 AM,50.0,48.2,94,29.83,2.8,NW,6.9,-,N/A,Rain,Light Rain,310,2013-05-21 09:23:00
11:25 AM,50.0,48.2,94,29.83,2.8,NW,6.9,-,N/A,Rain,Light Rain,320,2013-05-21 09:25:00
11:55 AM,50.0,48.2,94,29.86,2.8,WNW,6.9,-,N/A,,Mostly Cloudy,300,2013-05-21 09:55:00
12:25 PM,48.2,48.2,100,29.86,3.1,NW,8.1,-,N/A,Rain,Light Rain,310,2013-05-21 10:25:00
12:48 PM,48.2,48.2,100,29.86,3.1,NW,8.1,-,N/A,Rain,Light Rain,310,2013-05-21 10:48:00
12:55 PM,48.2,48.2,100,29.86,3.7,NW,6.9,-,N/A,,Mostly Cloudy,310,2013-05-21 10:55:00
1:07 PM,48.2,48.2,100,29.86,4.3,NW,6.9,-,N/A,,Mostly Cloudy,310,2013-05-21 11:07:00
1:25 PM,48.2,48.2,100,29.86,4.3,NNW,5.8,-,N/A,,Mostly Cloudy,330,2013-05-21 11:25:00
1:55 PM,48.2,48.2,100,29.86,4.3,NW,5.8,-,N/A,Rain,Light Rain,310,2013-05-21 11:55:00
2:00 PM,49,47,92,29.88,4,NW,6.7,,,Rain,Light Rain,310,2013-05-21 12:00:00
2:25 PM,48.2,46.4,93,29.86,4.3,NW,8.1,-,N/A,Rain,Light Rain,310,2013-05-21 12:25:00
2:55 PM,50.0,48.2,94,29.86,4.3,WNW,6.9,-,N/A,Rain,Light Rain,300,2013-05-21 12:55:00
3:25 PM,48.2,48.2,100,29.86,2.8,NW,8.1,-,N/A,Rain,Light Rain,320,2013-05-21 13:25:00
3:55 PM,48.2,48.2,100,29.86,3.1,NW,8.1,-,N/A,Rain,Light Rain,320,2013-05-21 13:55:00
4:25 PM,48.2,48.2,100,29.86,3.7,NW,9.2,-,N/A,Rain,Light Rain,320,2013-05-21 14:25:00
4:55 PM,48.2,48.2,100,29.86,3.1,NW,9.2,-,N/A,Rain,Light Rain,320,2013-05-21 14:55:00
5:00 PM,48,47,97,29.89,3,NW,8.9,,,Rain,Light Rain,320,2013-05-21 15:00:00
5:25 PM,48.2,48.2,100,29.89,2.5,NW,9.2,-,N/A,Rain,Light Rain,320,2013-05-21 15:25:00
5:55 PM,48.2,48.2,100,29.89,2.5,NNW,9.2,-,N/A,Rain,Rain,330,2013-05-21 15:55:00
6:25 PM,46.4,46.4,100,29.89,2.5,NW,6.9,-,N/A,Rain,Light Rain,320,2013-05-21 16:25:00
6:55 PM,46.4,46.4,100,29.89,1.9,NW,9.2,-,N/A,Rain,Rain,320,2013-05-21 16:55:00
7:25 PM,46.4,46.4,100,29.89,1.7,NW,8.1,-,N/A,Rain,Light Rain,320,2013-05-21 17:25:00
7:55 PM,46.4,46.4,100,29.89,1.5,NW,10.4,-,N/A,Rain,Light Rain,320,2013-05-21 17:55:00
8:00 PM,47,46,96,29.91,1,NW,11.2,,,Rain,Light Rain,320,2013-05-21 18:00:00
8:25 PM,46.4,46.4,100,29.89,1.4,NW,11.5,-,N/A,Rain,Light Rain,310,2013-05-21 18:25:00
8:55 PM,46.4,46.4,100,29.89,1.8,NW,12.7,-,N/A,Rain,Light Rain,320,2013-05-21 18:55:00
9:25 PM,46.4,46.4,100,29.89,1.9,NNW,10.4,-,N/A,Rain,Light Rain,330,2013-05-21 19:25:00
9:55 PM,46.4,44.6,93,29.89,-9999.0,NNW,11.5,-,N/A,,Light Drizzle,330,2013-05-21 19:55:00
10:25 PM,46.4,44.6,93,29.92,1.7,NNW,11.5,-,N/A,,Light Drizzle,330,2013-05-21 20:25:00
10:55 PM,44.6,44.6,100,29.92,1.7,NNW,13.8,-,N/A,,Light Drizzle,330,2013-05-21 20:55:00
11:00 PM,46,45,96,29.94,2,NW,13.4,,,Rain,Light Drizzle,320,2013-05-21 21:00:00
11:22 PM,44.6,44.6,100,29.92,1.9,NNW,11.5,-,N/A,,Light Drizzle,340,2013-05-21 21:22:00
11:25 PM,44.6,44.6,100,29.92,-9999.0,NNW,11.5,-,N/A,,Light Drizzle,330,2013-05-21 21:25:00
11:55 PM,44.6,44.6,100,29.92,2.2,NNW,15.0,-,N/A,,Light Drizzle,330,2013-05-21 21:55:00